Погода в Арамашеве

Россия / Свердловская область     57°36′24″N   61°43′48″E
темп.,
°C
ветер,
м/с
пор.,
м/с
влажн.,
%
обл.,
%
осадки,
мм/ч
давл.,
гПа
погр.,
м
9 мая, вс
вс923:00+13ссз2772100 0.8 1016130
02:00+12ссв2575100 0.1 101695
05:00+12ссв2473100 0.2 101692
08:00+15ссв1258100 0.0 1016139
11:00+21в133469 0.0 10171030
14:00+24вюв1424100 0.0 10162906
17:00+21с1331100 0.0 1017854
20:00+17с3545100 0.0 1019103
10 мая, пн
пн1023:00+14в2856100 0.0 1020171
02:00+13в2265100 0.0 102119
05:00+11в257099 0.0 102388
08:00+15в355012 0.0 1024419
11:00+19в453317 0.0 10241319
14:00+21в44257 0.0 10241838
17:00+21в34246 0.0 10241944
20:00+17в26383 0.0 1025137
11 мая, вт
вт1123:00+12ююв22478 0.0 102615
02:00+11ююз225297 0.0 102733
05:00+10ююз235593 0.0 102741
08:00+15юз3540100 0.0 1028301
11:00+19ююз3329100 0.0 10281005
14:00+21зюз2327100 0.0 10271613
17:00+22зюз23285 0.0 10271609
20:00+18юз224389 0.0 102734
12 мая, ср
ср1223:00+15ссз256521 0.0 1028106
02:00+12сз268433 0.0 1029147
05:00+10сз2681100 0.0 1030144
08:00+13ссз35715 0.0 1030397
11:00+18с3447100 0.0 10291172
14:00+21ссз353570 0.0 10291682
17:00+22сз363599 0.0 10282336
20:00+18с2251100 0.0 102829
13 мая, чт
чт1323:00+14з116464 0.0 102810
02:00+13зсз227338 0.0 102918
05:00+12зсз258052 0.0 102983
08:00+18зсз375522 0.0 1028399
11:00+23ссз473867 0.0 10271810
14:00+25ссз47315 0.0 10262294
17:00+26ссз463019 0.0 10262442
20:00+22с22455 0.0 102722